Theta_e
346 343 346 353 355 355 355 355 355 354 353 353 353 353 354 354 354 353 353 354 354 354 354 354 354 354 354 353 353 353 351 350 352 351 351 349 349 349 346 346 346 347 347 348 348 348 348 348 347 347 348 346 346 345 344 342 341 341 340 341 340 339 339 344 344 343 342 343 342 342 341 341 342 343 342 343 343 342 339 340 339 337 338 338 340
345 346 347 350 354 353 354 354 354 354 353 353 353 353 353 354 353 353 353 353 353 353 353 354 354 354 354 353 350 351 350 351 350 351 351 350 349 347 346 346 346 347 348 348 348 346 348 347 347 347 346 345 345 345 344 341 340 340 341 341 340 340 339 340 342 343 342 342 342 342 341 341 342 341 341 342 342 342 340 340 340 338 337 339 339
348 347 347 348 352 352 353 353 353 354 353 352 352 354 354 354 353 353 354 354 354 354 353 353 353 353 353 352 349 347 350 350 351 351 351 349 346 346 346 347 349 349 348 347 347 349 348 347 347 346 346 346 345 344 342 342 342 340 340 339 339 339 339 339 340 340 341 341 341 341 340 341 340 340 341 341 341 341 340 340 339 339 337 338 338
346 347 346 350 352 352 351 353 353 353 353 353 353 354 354 353 353 353 353 353 353 353 352 353 353 353 352 351 351 350 349 351 352 351 350 348 346 346 348 348 348 348 348 348 347 347 347 347 346 347 347 347 346 345 343 342 339 339 338 337 337 338 338 339 340 339 339 338 338 336 336 336 338 340 339 340 340 340 339 339 340 339 340 339 337
343 346 346 348 350 351 352 352 352 353 353 353 354 353 353 353 353 353 353 352 353 352 353 353 353 353 352 351 350 351 351 351 350 349 347 346 346 348 349 349 348 347 348 348 347 347 347 346 346 346 346 346 345 345 343 341 340 341 339 338 338 337 337 338 338 338 337 337 337 335 330 331 335 337 338 338 338 338 339 339 338 339 338 337 335
341 344 346 347 348 350 353 352 353 353 353 353 353 353 352 352 352 352 352 352 353 353 353 353 352 352 352 351 351 351 350 350 349 347 346 347 348 349 349 349 348 347 347 346 347 346 346 346 346 346 346 345 345 345 343 341 341 342 343 341 339 338 337 337 338 338 338 338 337 332 331 334 334 332 335 337 338 338 339 339 338 338 337 336 337
341 343 346 347 347 350 353 352 352 352 353 353 353 353 352 352 352 352 352 352 352 353 352 353 352 352 352 351 351 350 350 349 348 347 348 348 348 349 349 348 348 348 348 347 346 347 347 346 346 346 345 345 346 345 344 342 341 345 345 343 340 338 338 338 337 336 337 332 328 329 331 335 337 336 337 338 339 340 338 339 337 336 336 336 336
338 343 346 346 346 350 352 352 352 352 353 353 352 352 352 352 351 351 351 350 350 351 351 352 351 351 351 351 350 350 349 348 348 348 349 349 348 348 348 348 347 347 347 347 347 346 346 345 345 345 345 344 345 344 344 343 342 342 342 342 342 340 337 337 337 336 336 327 326 327 328 331 337 337 338 339 340 339 338 337 336 336 335 336 334
338 343 346 347 347 351 352 352 352 352 352 353 353 353 352 351 351 351 350 350 350 350 351 352 351 351 350 350 349 349 348 348 349 349 349 348 348 347 347 348 347 348 347 346 345 345 345 344 344 344 343 344 344 344 344 343 343 342 341 341 341 342 337 337 337 336 330 328 326 326 328 330 332 337 339 339 340 338 336 335 334 334 333 332 332
338 342 346 347 347 352 352 352 352 352 352 352 352 351 352 351 351 351 350 350 350 350 350 351 350 350 350 349 349 349 349 349 349 349 349 348 348 348 347 347 347 347 346 346 346 345 344 343 344 344 344 344 344 343 342 342 341 341 341 341 340 342 338 337 336 334 327 327 327 330 335 335 330 333 337 337 336 335 333 332 333 331 331 332 331
339 341 343 346 348 353 352 352 352 352 352 351 351 351 351 351 351 351 350 349 350 350 350 350 349 348 349 349 349 349 349 349 350 349 349 348 348 347 346 347 346 346 346 345 345 345 344 344 344 344 344 344 343 343 342 342 341 341 341 341 341 342 338 337 334 327 326 326 328 332 335 334 328 329 332 333 335 335 333 332 330 329 330 330 330
338 341 342 345 352 353 352 352 352 352 351 351 350 350 351 351 352 352 351 349 349 350 350 350 349 349 349 349 349 348 348 350 350 349 349 349 348 347 346 346 346 346 345 345 345 344 344 343 343 344 343 343 343 343 341 341 341 341 342 341 341 341 338 335 327 327 326 327 331 329 328 328 328 329 330 330 332 331 330 330 329 331 330 331 331
335 339 342 347 348 352 352 352 352 352 351 351 350 351 351 351 351 351 350 349 349 347 348 349 349 349 349 349 348 349 350 350 349 349 350 348 347 346 346 347 346 346 345 345 344 344 344 343 344 344 344 343 343 343 343 342 342 343 344 342 340 339 337 334 327 327 327 327 329 327 327 329 331 328 328 329 329 330 330 331 331 331 332 333 332
333 336 341 347 347 352 352 352 352 352 351 350 350 351 351 351 350 350 350 349 348 345 348 349 348 348 348 348 349 350 350 349 349 349 349 348 348 348 347 347 346 346 346 345 345 344 344 344 344 344 344 343 344 344 343 342 343 343 343 343 339 338 337 335 332 328 329 328 330 327 327 333 330 331 328 327 329 330 331 333 332 330 328 328 330
333 337 340 346 348 349 352 352 352 351 350 350 350 350 350 350 350 350 349 349 348 347 349 348 348 348 348 348 349 350 349 349 349 348 348 348 348 348 347 347 347 347 347 346 346 345 345 344 344 344 344 345 345 345 343 343 344 342 344 342 339 338 337 331 329 328 328 330 332 330 328 329 335 331 331 328 328 331 333 331 331 329 327 330 332
337 341 347 345 347 349 349 351 352 351 350 350 350 350 349 349 348 346 347 347 348 348 348 348 348 348 348 348 348 349 350 349 349 348 348 347 348 347 347 347 347 347 346 346 346 345 345 345 345 345 345 345 345 345 344 344 345 342 342 341 339 339 336 332 329 327 329 330 332 332 327 331 332 332 331 329 328 329 330 330 330 329 331 332 330
340 345 344 342 344 343 346 348 349 351 350 350 350 349 349 349 348 346 347 348 348 348 348 348 348 348 348 348 348 348 348 349 349 348 348 347 347 347 347 346 346 346 346 346 346 345 345 345 345 345 345 345 345 345 344 344 345 345 341 340 340 339 337 333 327 328 329 332 332 329 328 331 332 332 332 329 328 329 329 327 327 330 330 328 328
342 343 341 341 342 345 344 346 347 347 346 349 349 349 348 348 348 348 348 348 348 348 348 348 348 348 348 348 348 348 348 348 348 348 347 347 347 346 346 345 345 345 345 346 346 345 345 345 345 345 345 345 345 345 344 344 345 345 344 340 339 338 337 334 328 328 330 334 329 332 332 335 332 331 331 330 328 328 329 327 327 328 327 327 328
340 340 340 339 339 344 344 345 346 345 345 344 345 347 348 346 345 346 347 348 348 348 348 348 348 348 347 348 348 347 347 347 348 347 347 347 346 346 345 345 345 345 345 344 344 344 345 345 345 346 345 345 345 345 345 345 346 344 342 342 339 339 338 334 328 328 332 334 330 330 329 334 331 331 331 330 329 329 328 326 326 326 327 327 329
338 338 338 338 341 343 345 344 344 344 343 342 343 343 346 345 344 345 346 347 348 348 347 348 348 347 347 346 346 345 346 346 347 346 347 347 346 345 345 344 345 345 344 344 343 345 344 344 344 345 345 345 345 345 345 345 346 344 342 344 340 340 336 328 328 327 331 331 332 329 333 336 332 331 331 331 330 329 329 329 329 328 329 329 327
335 335 336 337 340 343 344 343 343 342 341 341 342 340 343 345 343 343 345 346 346 348 347 347 348 347 346 346 346 342 343 343 344 344 346 345 345 345 345 344 345 345 344 344 345 344 345 345 345 344 345 345 345 345 345 345 345 345 342 345 342 337 329 328 328 331 330 332 335 327 334 337 333 332 331 331 331 329 330 329 328 328 328 328 327
333 333 335 336 337 340 342 343 343 342 342 342 343 342 343 344 339 340 342 344 345 346 346 345 347 344 347 344 341 344 338 338 342 346 345 345 344 345 345 344 344 344 344 344 345 344 345 345 345 344 345 345 345 335 336 342 345 345 342 344 337 330 329 329 329 330 331 329 333 330 334 336 334 333 332 331 330 330 330 329 329 328 328 329 329
332 333 333 335 335 335 340 343 343 342 342 341 341 342 342 340 340 340 341 343 344 345 341 347 342 341 341 341 343 339 337 339 340 344 344 346 344 344 344 344 344 344 343 343 344 344 345 345 345 345 345 345 335 331 332 330 334 345 344 337 331 330 329 329 329 329 331 329 332 333 336 336 336 334 333 332 330 330 330 330 329 329 328 329 328
332 332 332 335 335 335 338 343 343 342 342 340 340 341 340 338 338 339 338 338 339 340 340 341 341 340 340 339 338 339 338 336 347 346 345 342 340 342 344 344 344 343 343 344 343 344 345 345 345 345 342 341 337 335 335 331 330 330 331 331 331 330 329 329 329 329 330 331 330 334 336 336 335 335 334 333 332 330 330 329 329 329 329 328 328
331 330 334 333 334 336 340 341 341 341 341 340 339 338 338 337 337 337 337 337 336 337 340 339 339 338 338 338 337 339 336 336 339 340 337 334 332 334 339 338 337 337 345 326 327 329 333 332 337 340 336 338 337 335 334 333 333 332 332 332 331 329 330 331 330 329 330 330 335 335 336 337 335 335 334 334 333 332 332 332 331 329 329 328 328
332 329 330 333 334 339 341 340 341 340 341 340 338 339 339 336 336 338 337 336 336 338 340 338 337 337 336 338 339 336 335 336 336 335 335 332 332 332 332 332 332 335 339 329 328 329 326 331 333 336 337 337 333 334 336 337 332 331 331 331 332 329 329 330 329 330 330 330 335 336 337 338 336 336 334 334 333 333 333 332 331 331 332 331 329
331 328 328 331 337 339 340 341 340 341 339 339 340 341 337 336 337 338 335 334 337 339 338 336 335 336 336 339 335 333 334 334 334 333 333 331 332 330 331 332 332 332 333 331 330 329 329 332 332 334 334 337 337 336 334 334 334 332 331 331 332 331 329 329 329 329 330 330 334 338 338 339 338 336 335 334 334 334 333 333 331 331 331 331 331
328 327 329 333 336 337 337 339 340 340 339 340 340 338 338 338 337 341 338 339 339 338 336 336 335 335 337 338 338 333 334 334 333 332 333 331 332 330 330 331 332 333 332 331 330 328 328 328 330 330 332 334 334 334 332 332 333 333 333 332 331 332 330 329 329 329 330 330 333 337 339 339 338 336 335 334 334 334 333 333 332 331 331 331 332
328 327 331 335 335 336 336 336 340 340 340 339 337 337 337 338 340 341 338 343 339 337 335 335 334 335 337 337 338 333 332 333 333 332 332 332 332 331 330 332 332 332 332 330 330 328 328 327 328 328 328 329 330 331 333 331 332 333 333 333 332 329 329 329 328 328 329 330 332 335 340 340 338 337 335 335 334 334 334 334 333 331 330 330 332
329 327 332 335 335 336 336 336 339 339 340 338 336 334 335 336 338 338 338 343 336 336 334 334 334 335 335 336 338 335 333 333 333 332 332 332 332 331 331 330 331 331 331 331 331 329 328 328 327 327 326 326 328 329 334 331 331 332 332 333 333 331 329 329 328 329 329 331 332 334 340 340 338 337 336 336 335 334 334 334 334 332 330 330 331
330 329 334 335 335 335 334 336 339 341 339 337 334 333 334 335 336 335 337 340 335 335 334 333 333 334 334 335 336 337 335 334 333 333 332 332 332 331 331 330 330 331 331 331 331 330 329 328 328 328 327 326 327 328 330 329 329 330 331 333 333 331 330 329 329 329 329 331 332 334 337 341 339 337 336 336 335 334 334 334 334 334 333 332 331
330 331 335 335 334 333 333 336 339 340 337 336 335 332 333 334 335 333 334 337 336 333 332 332 335 333 335 334 335 335 338 334 334 334 333 332 332 331 331 330 331 331 331 331 330 331 331 329 330 330 330 329 329 329 329 328 328 328 329 330 332 331 329 329 330 330 330 331 331 333 335 338 340 338 336 336 335 335 336 335 335 335 334 334 335
331 333 335 335 334 333 333 335 338 339 334 333 334 332 332 333 333 332 333 334 333 332 331 331 332 332 333 334 333 334 337 335 334 335 337 333 332 332 331 332 331 331 330 331 332 331 330 330 330 333 332 331 331 330 330 331 329 331 330 329 330 329 330 329 330 330 330 331 332 333 334 336 337 339 338 337 336 336 336 336 335 335 335 334 335
331 333 334 334 335 334 334 335 337 337 333 331 332 331 331 330 332 331 336 332 331 331 333 331 333 333 333 333 333 334 336 335 335 335 335 333 332 332 332 331 331 331 330 331 330 330 330 329 330 331 335 336 333 331 334 332 333 333 331 329 329 330 330 329 330 330 330 331 332 332 333 334 336 336 337 338 337 336 337 337 336 335 336 336 336
332 332 332 334 335 333 335 335 338 335 336 331 332 330 330 332 331 331 333 332 330 330 330 331 331 332 333 332 334 334 336 334 335 335 334 334 332 332 331 332 332 332 330 330 330 329 329 330 332 331 332 333 333 334 334 334 334 334 333 333 329 328 330 329 329 329 330 331 331 331 332 333 334 334 335 335 338 338 337 337 337 337 337 337 337
331 331 333 334 334 333 335 335 337 335 333 331 330 330 330 331 333 335 336 336 333 330 330 331 332 332 333 332 334 335 336 333 334 334 334 333 333 332 332 333 333 333 332 331 331 329 329 331 334 333 331 331 333 332 336 334 334 334 334 334 332 332 328 329 329 329 330 330 330 331 332 332 333 333 335 334 334 336 338 338 337 337 337 338 338
331 331 331 332 333 332 335 335 335 334 333 332 330 331 332 333 335 336 335 336 335 334 333 333 333 334 334 334 333 336 335 333 334 334 333 333 333 332 333 333 335 335 333 331 331 331 330 332 334 338 332 331 333 332 334 335 335 337 335 335 333 332 328 329 329 329 329 328 329 330 331 331 332 336 336 334 333 333 335 338 338 338 338 338 338
331 331 331 331 331 332 334 335 336 335 331 331 331 332 333 334 335 336 337 335 335 336 335 335 332 334 335 335 335 335 337 333 333 333 333 333 333 332 333 333 335 334 333 331 331 332 332 333 332 335 335 333 333 333 333 335 337 337 335 335 334 333 331 329 330 333 329 328 329 329 330 331 332 333 334 334 333 333 332 334 337 339 339 338 338
328 328 329 330 331 331 333 335 336 335 333 332 332 334 334 335 335 335 336 334 335 336 337 335 332 334 335 335 335 335 338 334 334 334 332 333 334 332 332 333 335 333 332 332 332 333 332 331 332 334 336 335 333 334 334 333 333 334 335 334 334 334 334 333 333 334 330 330 329 330 329 330 331 331 332 333 333 332 332 332 332 334 336 339 340
326 326 327 328 329 329 331 334 336 336 335 333 333 332 333 333 332 333 332 334 334 335 336 336 334 334 335 336 337 335 337 337 335 334 333 334 332 332 332 333 334 333 332 332 332 332 331 331 330 334 334 338 335 334 333 334 332 330 332 334 332 332 334 338 335 334 333 331 331 334 331 330 330 331 331 331 332 332 332 331 332 331 332 333 337
325 325 326 326 327 328 330 331 334 336 334 332 331 330 329 330 331 331 329 331 332 333 335 336 336 335 335 337 338 337 336 338 336 334 332 336 333 330 331 332 333 334 332 332 333 333 332 333 334 337 334 334 334 332 333 330 329 330 327 328 329 331 335 339 336 335 336 336 334 334 334 333 331 330 331 331 331 332 331 331 331 332 331 332 333
324 324 325 326 327 327 329 331 333 335 335 334 333 331 330 329 328 329 327 331 331 332 331 334 335 337 336 337 338 338 337 337 338 334 334 333 331 331 331 332 333 334 333 335 334 338 337 334 335 333 333 333 331 332 332 330 326 325 324 324 325 326 330 333 334 335 335 336 336 335 334 332 331 332 332 332 332 332 332 332 332 331 331 331 331
323 324 325 326 326 326 327 330 332 334 335 335 334 332 331 331 329 329 331 331 333 334 333 335 336 336 337 337 337 336 338 338 338 337 334 333 331 331 331 332 333 334 334 332 334 337 336 334 334 335 332 331 332 332 332 329 327 324 325 323 319 320 326 325 328 330 332 335 335 335 335 333 333 334 334 333 332 333 332 333 332 332 331 331 331
324 323 324 325 326 327 327 329 331 334 334 335 335 333 331 332 332 332 332 331 329 333 334 335 334 335 335 337 337 337 336 337 338 337 336 334 332 331 331 332 332 334 333 331 330 334 335 334 333 333 330 327 322 325 334 331 327 326 322 320 319 320 318 320 324 327 328 332 335 335 336 335 335 335 336 334 334 334 334 334 333 333 333 332 332
323 323 324 325 326 326 327 329 330 332 334 334 335 333 334 333 333 332 334 333 334 334 332 332 333 334 335 334 335 337 336 336 338 337 337 334 333 332 331 331 332 332 333 331 330 331 334 335 334 330 328 327 325 324 330 333 330 330 327 320 319 317 317 319 321 322 325 333 333 333 338 339 337 337 337 336 335 336 336 335 336 335 335 334 333
323 324 325 326 326 326 327 328 329 330 331 333 334 333 333 332 331 331 329 330 329 330 329 330 331 332 333 336 335 336 336 336 337 338 338 338 336 335 333 332 332 333 334 332 331 330 331 332 333 333 331 328 328 326 327 333 334 334 327 328 326 322 321 324 322 320 327 329 328 331 334 334 334 336 335 335 334 335 336 335 336 337 337 336 335
324 325 325 325 326 326 326 329 329 329 330 330 332 334 331 331 332 331 331 330 328 329 332 333 333 334 335 335 336 336 336 336 336 337 337 338 338 338 336 334 333 332 335 334 331 331 332 334 334 333 333 330 328 327 326 329 332 332 333 331 333 329 328 326 321 317 319 325 326 328 330 330 330 332 335 335 336 335 336 336 336 336 338 338 337
325 325 324 324 324 325 325 327 329 331 330 330 330 333 331 330 329 329 330 329 329 328 329 330 332 333 332 333 334 335 335 336 335 336 337 337 338 338 338 336 335 334 336 335 334 333 333 334 336 334 332 332 330 330 326 326 328 328 332 331 332 333 330 328 325 326 320 320 324 327 326 326 329 332 332 334 335 336 337 337 337 338 339 338 339
324 324 325 325 324 324 325 326 328 330 329 329 330 331 332 329 329 328 328 330 329 329 330 331 329 331 330 331 331 332 334 335 335 335 336 337 338 338 338 337 337 336 337 336 336 335 334 333 334 333 332 332 331 330 326 326 326 328 329 329 331 331 328 326 327 327 323 318 321 318 321 326 328 329 329 332 333 335 337 338 338 339 339 339 339
324 326 325 325 324 323 323 324 326 328 329 329 330 329 330 331 328 327 327 328 330 330 329 327 326 327 328 328 329 330 331 333 334 335 334 336 337 338 338 337 337 337 337 337 336 335 335 333 334 334 332 332 330 333 330 327 328 328 330 329 328 327 328 326 326 325 325 324 323 322 325 324 324 328 331 333 333 335 336 338 338 338 338 339 339
323 324 324 324 324 323 323 323 324 326 328 329 330 329 330 330 329 328 328 328 328 330 330 329 327 326 326 326 327 328 330 331 332 333 334 335 335 337 338 337 337 337 337 337 336 335 335 334 333 333 332 331 330 330 331 329 329 329 327 328 329 328 327 326 324 324 326 323 322 323 326 325 325 325 329 331 333 334 334 336 338 338 338 339 339
Wind_Speed
1 2 0 3 7 10 11 12 12 12 12 13 13 14 14 14 14 14 14 14 14 15 14 14 14 14 14 14 15 14 13 13 13 13 13 13 12 12 11 11 10 12 13 15 15 15 16 17 17 18 18 18 17 16 15 14 15 14 14 15 13 12 12 15 13 13 13 13 13 12 12 11 12 14 15 15 14 15 14 14 12 9 8 12 14
5 3 2 3 7 10 10 11 12 12 12 12 13 13 13 13 14 14 14 14 14 14 15 14 13 13 14 14 14 12 11 12 13 14 13 13 11 11 11 10 11 13 15 14 15 15 16 17 17 18 18 18 16 15 15 14 15 14 14 13 13 13 13 12 14 14 13 13 12 12 12 12 13 13 14 14 15 15 13 14 14 7 7 13 14
5 4 2 5 9 9 10 11 11 12 12 12 12 13 12 12 13 13 13 13 13 13 14 14 13 14 14 15 16 12 12 13 13 14 13 12 12 11 11 13 14 14 14 13 15 16 17 17 17 18 18 18 17 15 15 15 15 14 13 13 12 11 11 12 13 12 12 13 13 13 12 13 12 12 13 13 14 12 12 12 12 10 9 14 14
6 3 3 8 12 11 11 12 12 13 13 13 13 13 13 12 13 12 12 13 13 13 14 15 14 14 14 15 16 14 13 14 13 13 12 12 11 11 13 13 13 14 15 14 15 16 16 17 17 18 18 17 16 15 14 14 15 15 14 13 11 10 10 11 12 13 13 13 12 9 4 6 9 12 12 12 12 13 12 12 13 13 14 14 14
6 6 6 7 10 14 15 15 15 15 15 14 14 14 13 13 12 12 12 12 12 13 14 14 14 15 15 14 14 13 12 12 12 12 11 11 10 13 13 14 13 12 12 14 14 15 15 16 16 17 17 16 16 14 13 13 13 13 13 12 12 11 10 10 10 11 11 11 10 7 4 4 5 10 10 10 11 11 12 12 13 13 13 13 11
10 8 7 7 8 10 15 15 15 15 14 15 14 14 12 12 12 12 11 11 11 11 13 14 15 14 14 14 13 13 13 12 12 11 11 11 12 13 13 13 13 12 13 14 13 14 14 15 16 16 16 16 15 13 12 13 12 14 13 11 11 11 9 9 10 10 11 11 9 5 5 6 5 4 10 10 10 10 12 12 14 13 12 14 13
10 8 7 6 5 7 12 13 14 14 14 14 14 14 13 12 12 11 10 10 11 11 13 14 14 13 13 13 12 12 12 12 12 11 11 12 13 13 13 13 13 12 12 14 13 12 14 12 14 15 15 15 14 13 11 10 12 14 12 11 7 7 8 9 10 11 11 7 4 5 5 6 6 3 10 10 11 11 11 12 12 12 12 11 11
1 4 6 5 3 9 13 12 13 14 14 14 14 14 14 13 11 10 10 11 10 12 14 15 14 13 12 11 12 12 12 12 12 12 12 12 13 12 13 12 12 12 12 11 11 12 13 13 12 13 14 13 13 12 10 7 6 5 4 6 6 4 7 9 11 11 10 5 4 4 4 5 6 3 8 10 11 11 11 12 13 13 12 12 10
4 6 8 8 7 15 14 13 13 14 14 14 14 14 14 13 12 10 10 10 11 11 13 14 13 13 12 12 12 12 13 12 12 12 13 13 13 12 12 12 12 11 12 11 11 11 10 11 12 11 11 12 12 12 10 8 6 4 3 4 3 6 8 9 10 10 5 4 4 4 5 4 4 4 9 10 11 11 11 10 9 12 11 10 9
2 1 7 9 9 18 17 16 15 14 13 13 14 14 14 13 12 11 9 9 11 11 12 12 12 13 12 12 12 13 13 12 12 13 13 13 13 12 12 12 11 12 12 12 12 11 11 10 11 11 11 11 11 10 9 7 6 4 3 3 2 7 10 10 10 7 4 4 4 5 5 6 4 5 10 10 11 11 11 11 7 7 7 9 9
4 2 0 3 10 18 17 16 15 15 15 14 14 14 13 13 12 12 10 9 11 11 11 12 12 11 11 12 13 12 12 12 13 13 14 13 12 12 12 12 12 12 12 13 13 12 11 11 11 12 12 11 10 9 7 6 4 3 3 4 5 11 11 10 8 4 4 4 4 4 6 8 4 2 6 7 9 9 10 10 8 7 9 9 9
1 2 2 1 10 17 16 16 16 15 15 15 14 13 13 12 11 11 11 12 12 11 11 11 11 11 11 12 11 10 11 13 13 14 14 13 12 12 12 11 11 11 12 13 13 12 11 12 12 12 12 11 10 9 6 5 4 3 4 6 8 11 10 10 5 4 4 5 5 5 6 6 4 3 8 6 7 7 8 8 6 9 8 9 10
1 1 2 1 3 12 14 15 16 15 15 14 14 13 12 12 11 11 12 11 10 8 11 11 11 11 11 11 10 10 12 13 13 13 13 12 11 11 11 11 11 12 12 13 13 12 12 12 12 12 12 11 11 9 7 4 3 2 4 9 11 10 10 10 5 5 4 4 4 5 6 5 3 5 4 7 7 7 7 9 8 8 9 10 10
0 1 1 0 2 11 13 14 15 15 15 14 14 13 12 11 11 12 12 11 10 10 9 10 10 11 11 10 11 11 11 12 12 13 13 13 12 11 10 10 10 11 12 13 13 13 12 11 12 12 11 11 10 9 7 5 4 3 6 11 11 11 11 8 5 4 5 5 4 5 5 3 1 7 6 4 7 6 7 7 8 7 7 7 9
1 2 1 0 3 4 13 13 14 14 15 14 13 12 11 11 13 11 11 10 10 10 10 10 10 11 10 11 11 11 11 11 11 11 12 13 12 11 10 9 9 10 11 12 12 12 11 11 10 10 10 10 10 9 8 6 5 5 8 12 11 11 10 4 4 4 4 4 4 4 4 2 3 7 8 5 2 8 9 8 8 8 7 9 10
1 1 1 1 0 4 5 11 13 14 14 15 13 12 12 12 12 10 8 8 10 10 10 10 10 10 10 10 10 10 10 11 10 11 11 11 11 11 10 9 8 8 9 11 10 10 10 10 9 9 10 10 9 9 8 6 6 7 10 11 11 10 9 5 4 4 3 4 3 3 3 1 3 7 7 6 2 5 7 7 9 9 10 10 9
2 1 2 2 2 2 4 4 7 13 13 14 14 13 13 14 13 12 9 10 10 10 10 10 9 9 8 9 10 9 9 10 10 10 11 10 11 10 9 8 7 6 7 8 8 8 9 8 8 8 9 9 9 8 8 5 4 6 9 10 10 10 9 7 4 3 3 3 3 3 2 1 4 7 7 7 5 5 8 7 6 9 8 7 7
4 4 3 2 2 3 2 3 5 5 6 10 13 14 12 13 13 12 10 11 11 11 11 10 9 9 10 11 10 9 9 9 10 11 11 11 11 10 9 8 7 5 6 6 7 6 7 7 7 8 8 8 8 8 7 5 4 4 4 10 10 10 9 8 4 3 3 3 3 2 2 2 8 7 7 7 7 6 7 5 4 7 7 6 6
5 5 3 2 2 4 3 4 4 4 5 5 5 10 12 11 11 11 13 14 13 13 12 11 11 9 11 11 10 9 8 9 10 11 11 11 10 9 9 7 6 5 5 5 4 5 5 6 6 7 7 7 7 7 6 4 3 3 4 9 10 10 11 6 4 3 3 3 3 3 2 5 8 8 7 8 8 6 6 6 5 6 5 6 6
4 4 3 2 1 4 4 4 4 4 4 4 5 6 10 13 10 9 11 13 13 12 12 12 12 11 11 11 10 6 6 6 9 8 10 11 10 7 8 7 6 5 4 3 3 3 4 4 5 6 6 5 6 7 5 4 4 4 3 10 11 11 6 4 5 4 3 3 3 3 3 5 8 8 8 8 9 8 8 7 8 7 7 6 4
4 3 3 3 2 4 6 6 4 4 4 4 4 6 7 12 9 9 10 9 9 13 12 12 12 10 9 8 7 4 3 2 5 4 8 6 7 8 7 7 6 5 3 2 2 2 2 3 4 5 5 5 6 7 5 4 3 3 4 9 12 5 4 5 4 4 3 3 3 3 6 6 9 8 8 8 8 7 7 7 4 5 6 6 5
3 3 2 3 2 2 5 5 4 4 5 4 4 5 6 8 7 5 4 6 6 7 8 5 7 3 9 6 5 3 4 3 4 5 4 4 5 7 7 6 5 4 3 2 2 2 2 2 3 4 4 4 5 3 2 3 2 4 4 8 5 5 5 5 5 4 4 3 3 4 7 7 9 8 8 8 8 6 6 7 7 5 5 6 5
4 3 3 3 2 2 2 4 4 4 6 5 4 4 5 4 6 5 4 5 4 2 0 5 3 4 4 5 4 4 3 3 2 2 3 4 4 7 7 6 5 4 3 2 2 2 2 2 3 3 2 2 3 4 2 1 1 3 4 3 4 4 5 5 4 4 4 4 3 5 7 8 8 8 8 8 7 7 7 6 5 5 5 4 4
5 4 4 2 2 1 2 5 5 5 6 5 5 4 4 3 4 4 4 3 1 1 1 2 4 4 5 4 4 4 3 3 5 7 7 2 3 6 6 6 6 4 4 2 4 4 5 5 4 4 3 2 1 3 2 1 2 2 2 3 4 4 5 5 4 4 3 4 4 7 6 8 8 8 8 8 8 8 8 7 6 5 5 4 4
4 3 3 4 2 2 3 5 5 4 6 6 7 5 5 4 4 4 4 4 3 3 2 3 4 4 4 4 4 3 3 3 0 0 3 3 1 0 1 2 1 1 2 2 2 2 2 2 3 3 1 1 1 2 3 3 2 2 2 2 3 4 4 3 3 3 4 4 4 8 8 8 8 8 8 8 8 8 8 7 6 6 6 5 4
4 4 5 4 2 3 5 5 5 5 5 5 5 6 7 5 5 5 5 3 3 3 2 3 4 4 4 4 3 4 3 2 0 1 2 3 2 2 3 3 2 2 0 0 1 1 2 2 2 2 1 2 2 3 4 4 3 3 3 2 3 4 4 4 3 4 4 4 4 9 9 9 9 9 7 8 8 9 8 8 7 6 7 6 5
5 4 3 3 4 4 5 5 6 5 5 5 5 5 5 5 5 5 5 4 4 4 4 3 4 5 4 4 4 4 4 3 2 2 3 3 3 2 2 2 3 2 0 1 2 3 2 1 2 2 2 2 1 1 3 4 4 4 3 2 2 3 4 4 4 4 4 4 4 9 9 9 10 9 8 8 9 9 9 7 6 5 5 6 5
3 4 3 3 5 5 5 5 6 6 5 6 5 5 5 5 5 6 5 5 5 4 4 4 4 5 4 4 4 4 4 4 4 4 4 3 3 3 3 3 3 3 0 1 1 3 3 3 3 1 1 2 3 3 3 2 5 4 3 3 3 3 3 3 3 4 3 3 3 7 10 9 10 9 9 9 9 8 8 7 6 6 6 5 6
5 4 4 5 6 5 5 5 5 6 5 5 5 4 4 4 5 4 6 6 5 5 4 4 4 4 4 4 4 4 4 4 5 5 3 4 3 4 4 4 3 3 1 0 0 2 2 3 3 4 5 5 4 4 5 5 5 2 1 2 3 3 3 3 4 4 4 3 3 4 9 9 9 10 9 9 8 8 8 8 7 6 6 6 7
4 4 5 5 6 6 6 6 6 5 5 5 5 5 5 5 4 4 5 6 5 4 4 4 4 4 4 4 4 4 5 5 4 3 4 5 4 4 4 4 3 2 2 3 2 1 2 2 3 3 4 4 4 4 4 5 5 4 4 3 3 3 3 4 4 4 4 3 3 3 9 9 9 10 10 10 9 8 8 8 8 7 6 6 7
5 6 6 5 6 6 6 6 5 7 5 5 5 6 5 5 4 4 4 4 4 3 3 3 3 3 3 3 4 4 4 4 4 4 4 4 4 4 4 3 4 4 3 3 1 1 1 1 1 2 3 3 4 3 4 5 5 5 4 4 3 3 3 3 3 3 4 4 3 3 4 8 9 10 10 10 9 9 8 8 9 9 8 7 7
7 7 5 6 6 7 7 6 6 6 6 6 5 5 5 5 5 4 4 2 3 2 2 2 2 2 2 3 4 4 4 4 4 4 5 4 4 4 4 4 5 4 3 2 2 1 1 2 2 2 3 3 4 4 4 4 5 5 4 4 3 3 3 3 3 4 3 4 4 3 3 3 8 10 11 10 9 9 9 9 9 9 9 9 9
5 7 5 8 6 7 6 7 7 6 6 6 5 4 4 3 4 3 2 2 2 1 2 2 3 3 2 3 4 4 4 4 4 4 4 4 4 4 4 4 4 4 2 2 2 2 2 2 2 1 2 3 4 5 3 4 5 5 3 3 3 3 3 3 3 3 4 4 4 4 3 3 2 7 11 11 10 10 10 9 9 10 10 9 9
7 6 6 9 6 4 5 4 6 6 6 5 5 4 3 2 1 2 2 3 2 2 2 2 2 2 2 3 3 3 3 3 4 4 3 4 4 4 4 3 3 4 2 2 3 3 3 2 3 3 3 3 5 4 2 3 3 3 3 3 3 3 3 4 4 3 3 3 4 4 4 3 3 3 4 10 11 10 11 10 10 10 10 10 10
6 6 7 8 8 5 6 4 7 5 6 5 5 4 3 3 4 3 3 3 3 3 2 2 2 2 3 3 3 3 2 3 4 4 4 3 4 4 4 4 3 3 2 2 3 2 2 3 2 4 4 4 4 3 2 2 3 3 2 2 3 2 2 3 3 3 4 4 3 4 4 3 3 3 4 4 7 12 12 12 11 11 11 11 11
9 8 8 7 8 6 8 6 7 6 5 5 4 5 5 4 4 4 4 3 3 2 2 3 3 3 3 3 3 3 3 3 4 4 4 4 4 4 4 3 3 2 2 2 2 3 3 3 3 4 4 5 3 3 1 3 2 3 0 1 1 2 3 3 4 4 3 3 3 4 4 4 4 4 5 4 4 5 11 13 12 12 12 12 12
9 8 9 8 8 7 9 7 8 7 6 5 5 5 5 5 5 5 4 4 3 3 3 3 3 4 4 3 3 3 2 3 4 3 3 4 4 3 3 3 2 2 2 2 3 4 4 3 3 2 3 4 4 4 2 1 3 3 2 2 2 2 3 3 3 3 3 4 4 4 4 5 5 6 5 5 4 4 7 12 13 13 13 13 13
9 9 9 9 10 8 7 7 6 5 5 5 5 6 5 5 5 5 5 4 4 3 3 3 4 4 4 4 4 3 3 4 4 3 3 3 3 2 3 3 2 2 2 3 3 2 3 3 3 2 1 2 4 3 1 1 1 2 3 3 3 1 2 3 3 3 4 4 4 5 5 4 4 5 4 4 5 5 4 8 12 13 14 14 13
6 7 7 6 6 6 6 7 7 6 6 6 6 6 6 5 4 4 5 4 3 3 4 3 4 5 4 4 5 4 4 5 4 4 3 3 2 2 2 2 2 2 2 2 2 2 2 2 3 2 1 1 2 1 0 1 2 2 2 3 3 2 1 1 3 4 5 4 4 5 3 5 4 5 5 5 5 5 5 4 5 5 7 12 12
6 6 7 6 6 6 5 5 6 6 6 7 6 6 4 4 4 3 3 3 3 3 4 4 3 3 4 4 5 5 5 5 5 5 4 3 2 1 2 2 3 2 2 2 2 3 3 3 2 2 1 1 3 2 1 1 1 1 1 3 3 3 2 2 2 4 4 4 4 3 4 3 4 5 5 5 4 5 4 5 5 5 5 7 11
6 7 7 7 7 7 7 9 6 7 6 6 6 6 5 4 2 3 3 5 4 4 4 4 4 3 4 5 5 5 5 5 5 5 5 4 3 2 2 3 3 3 3 3 2 2 2 2 2 2 2 2 0 1 1 1 3 2 2 2 4 3 3 2 3 3 3 3 2 3 3 3 4 5 5 4 5 5 5 5 5 5 5 4 5
7 7 9 9 8 7 8 7 6 8 7 6 5 4 4 5 5 6 4 5 5 5 5 5 5 5 5 5 5 5 5 5 5 5 6 5 4 3 4 4 4 4 3 2 2 2 2 2 3 2 2 1 2 1 1 1 3 1 2 5 4 5 2 2 3 2 2 2 2 3 3 4 4 4 3 3 4 5 5 5 5 5 5 4 5
8 8 8 7 7 8 7 7 6 9 8 7 5 5 3 3 3 3 4 3 3 4 3 2 4 5 5 5 4 4 4 4 5 5 6 6 5 5 5 4 4 4 3 3 3 3 3 4 4 4 2 0 1 3 3 1 1 2 1 1 2 4 4 4 2 2 2 1 2 2 3 3 5 4 3 3 3 4 4 5 5 5 5 5 5
6 7 7 9 7 7 7 7 8 7 9 8 7 5 2 1 0 1 2 3 1 3 4 3 3 4 5 5 4 4 3 4 5 5 3 5 6 6 5 5 4 4 4 4 4 4 3 3 3 2 2 2 3 3 2 2 2 3 1 1 1 1 3 3 4 5 2 1 1 1 1 3 3 3 2 3 4 4 4 4 6 5 5 5 5
8 9 9 9 7 8 8 8 7 8 8 10 8 5 4 4 2 2 2 1 1 2 2 2 3 4 3 4 4 4 4 5 4 4 4 4 4 4 5 5 5 4 4 4 4 5 5 4 4 5 5 4 4 3 3 2 1 0 4 2 1 1 1 3 3 2 4 3 3 2 1 2 2 3 3 3 3 4 4 5 5 5 6 5 5
9 9 9 9 8 8 7 7 7 7 8 8 7 5 5 5 5 5 4 3 4 3 4 2 2 2 3 2 3 4 5 5 5 6 6 5 5 5 5 5 5 5 5 4 3 3 3 4 5 5 6 3 3 3 2 1 1 0 1 1 2 1 1 2 1 3 4 0 3 3 2 2 0 2 3 4 4 4 3 5 5 5 5 5 5
10 7 8 8 9 8 8 8 8 8 8 8 7 7 6 5 7 6 5 4 4 3 2 1 1 2 2 3 4 4 5 6 6 6 5 6 6 5 6 5 4 5 4 4 3 4 4 3 3 4 4 3 3 3 4 2 1 1 2 1 1 1 2 1 1 1 4 3 2 3 4 4 4 3 2 2 3 4 3 4 5 5 5 4 5
8 7 8 7 9 9 9 8 7 7 7 7 8 8 8 7 7 6 5 6 6 5 2 2 2 3 4 5 4 4 5 6 6 6 6 6 6 5 5 5 5 4 5 5 5 4 3 3 4 3 2 3 4 4 3 2 3 2 2 2 1 1 2 3 4 3 2 3 5 3 2 3 4 3 2 4 3 3 4 3 4 4 4 4 4
8 9 9 9 8 7 8 8 8 7 6 7 8 8 8 7 7 6 6 5 5 5 3 3 3 4 4 4 5 4 5 6 6 5 6 7 7 7 7 6 5 5 5 5 5 5 6 5 5 4 4 4 4 3 3 4 3 3 3 2 2 2 2 1 2 2 2 1 4 2 4 5 3 3 2 3 3 3 4 4 3 4 4 4 3
9 8 7 6 6 6 7 9 10 9 7 8 8 8 8 7 7 7 8 6 5 3 3 4 4 4 4 4 4 5 5 5 6 6 5 7 6 7 7 7 7 6 5 5 6 6 6 7 7 7 5 6 4 5 6 4 4 3 3 4 3 2 1 1 1 2 1 1 4 4 6 7 7 4 4 4 5 5 4 4 4 3 3 3 2
7 8 7 7 7 7 8 9 10 8 8 9 9 9 8 7 7 7 8 7 6 4 4 4 3 3 4 4 4 5 5 5 5 6 6 6 7 7 6 6 6 6 6 7 8 8 6 6 6 6 6 7 5 5 4 4 3 3 4 4 4 4 4 3 3 3 3 2 1 4 4 3 4 7 4 3 6 6 4 3 3 3 3 3 3
Wind_Direction
157 72 34 131 131 127 123 123 127 124 121 121 120 117 113 114 114 114 116 115 118 118 119 120 120 122 123 126 127 118 117 119 120 119 117 115 113 109 109 111 113 113 115 113 112 108 103 103 102 99 99 97 96 98 100 93 90 90 86 81 84 82 82 90 87 86 90 91 88 81 82 87 88 89 89 91 90 88 88 90 89 84 82 80 77
128 50 33 118 122 126 126 124 125 122 120 120 118 116 113 114 115 115 117 119 119 122 124 124 125 125 127 125 113 107 120 122 124 121 117 117 112 108 110 125 121 112 115 120 115 108 106 106 104 102 99 99 99 99 95 95 95 96 91 88 81 77 80 79 86 89 89 90 92 92 89 87 86 87 85 86 88 88 88 86 82 77 86 88 84
88 89 67 127 128 130 127 129 129 127 126 125 122 117 116 115 116 117 119 120 122 124 127 128 128 129 129 126 121 131 134 130 130 122 121 114 110 119 122 108 111 119 118 118 117 111 107 107 105 104 104 103 104 99 98 97 92 91 92 87 81 77 71 72 77 81 82 81 81 80 77 80 78 85 88 84 90 92 90 90 87 85 88 87 86
114 123 135 141 135 140 145 140 142 138 135 133 131 127 124 122 121 121 122 124 125 127 129 130 131 129 129 128 131 135 135 129 122 122 117 114 123 121 110 118 123 126 127 120 118 112 110 109 109 107 106 105 105 104 106 105 105 105 104 97 92 87 84 82 82 86 87 85 78 63 39 58 78 83 90 93 90 84 84 85 87 87 87 88 86
150 153 159 151 151 157 155 151 151 146 141 138 136 133 128 126 124 124 126 124 128 130 130 131 130 129 127 126 126 129 128 125 121 115 115 122 127 113 117 119 121 116 114 116 112 111 110 111 112 109 108 107 109 111 111 109 107 107 106 99 95 97 91 92 92 88 86 79 63 58 51 63 79 88 89 92 93 101 105 99 94 89 88 87 91
170 164 161 154 157 155 155 153 150 145 141 138 136 132 127 125 124 126 129 131 132 134 133 129 128 127 128 126 127 132 130 120 117 120 125 132 123 120 121 122 119 118 117 106 118 113 109 111 114 114 113 114 114 115 117 115 113 107 95 87 97 97 102 104 95 86 79 69 55 46 46 60 49 64 96 97 99 95 92 91 89 88 86 87 82
163 154 149 150 142 143 147 146 143 142 139 137 136 131 129 126 128 129 133 137 139 138 132 127 128 127 127 128 133 132 122 121 123 131 137 127 124 124 125 121 122 121 116 119 115 113 109 107 114 116 117 115 118 120 123 124 121 122 105 79 77 95 103 106 101 90 76 59 53 44 44 56 61 15 101 102 100 94 102 107 97 89 88 87 88
96 144 137 119 104 138 141 143 143 143 141 139 137 135 133 133 131 134 138 142 141 139 134 131 132 131 130 132 131 126 126 127 132 136 129 125 124 125 123 122 117 113 111 110 108 112 116 118 114 121 124 121 120 121 122 116 105 105 79 79 101 92 108 113 107 96 83 69 55 49 53 54 72 35 98 101 100 98 101 95 91 86 84 83 84
184 157 138 127 139 144 143 144 147 147 144 143 142 140 136 135 135 136 139 142 142 142 136 131 133 131 131 129 128 130 131 135 139 134 128 126 125 124 122 118 116 115 113 110 111 109 109 119 121 117 123 120 118 120 121 119 121 114 80 51 52 136 130 120 112 95 76 71 68 74 73 79 84 94 96 101 103 104 90 75 79 94 98 95 88
226 176 148 149 154 153 151 152 151 149 146 144 143 140 138 136 137 137 138 140 142 141 134 132 133 132 131 128 130 134 137 139 138 134 130 128 128 127 125 121 118 116 113 112 113 114 119 121 123 122 125 124 119 119 123 121 114 102 76 43 85 147 145 128 115 99 93 86 85 97 103 83 80 117 122 113 97 89 92 92 91 96 106 110 100
163 129 13 162 157 153 153 152 150 149 147 146 145 143 139 137 136 137 141 142 136 131 130 131 136 135 128 130 134 138 143 138 139 135 130 130 133 132 125 122 120 117 113 114 115 118 122 124 126 125 126 125 121 116 113 108 114 110 94 88 123 138 140 128 109 90 94 89 77 66 90 82 76 19 102 104 105 101 102 102 99 113 114 105 99
154 143 121 286 164 155 153 150 148 146 145 147 146 141 139 137 136 137 136 141 134 138 141 138 136 132 132 137 138 144 138 138 136 132 131 134 138 132 127 122 119 114 114 114 115 117 120 125 128 125 125 122 117 113 111 110 108 116 117 131 132 138 135 125 107 105 93 84 83 85 81 82 49 77 116 121 118 116 112 113 121 132 113 110 117
13 356 98 261 161 160 152 148 144 143 144 146 144 142 141 138 136 131 127 129 132 133 146 136 134 136 138 139 141 131 130 138 137 136 132 135 131 129 126 124 121 117 113 111 111 112 115 120 123 123 121 120 117 112 105 96 96 103 154 151 145 144 139 129 113 113 97 92 90 92 95 88 59 102 78 114 127 117 108 108 107 108 112 114 115
31 308 132 319 161 161 151 145 144 142 142 144 144 143 142 138 133 131 131 132 136 157 139 133 136 139 140 137 131 129 134 138 138 137 137 135 134 136 135 129 125 121 114 111 111 112 114 118 122 122 122 119 112 106 102 83 62 69 158 158 153 148 139 126 124 110 105 103 104 101 97 91 284 135 134 152 126 124 112 108 107 112 98 99 101
33 324 291 83 193 161 154 148 146 142 141 142 143 143 140 134 131 127 128 137 146 139 130 133 139 141 139 138 139 137 138 137 137 137 138 138 140 141 139 133 128 124 118 115 115 116 117 119 120 119 113 107 103 100 92 83 62 74 148 153 152 148 134 119 120 117 110 109 105 105 101 90 186 137 138 174 151 127 130 122 114 110 135 116 99
56 326 321 47 91 167 151 151 146 142 141 143 141 140 136 129 126 125 131 140 136 135 136 138 142 142 141 142 144 144 139 138 139 137 137 139 139 141 139 135 129 124 117 116 117 119 119 118 115 110 104 101 98 94 91 83 77 92 136 147 151 147 141 130 119 120 115 111 106 114 124 218 200 128 147 162 183 119 114 104 122 130 115 115 111
103 90 72 68 67 135 148 135 145 146 144 142 140 139 138 137 136 142 147 140 136 141 143 143 145 145 137 141 144 145 144 139 136 137 136 135 135 135 139 137 131 122 116 113 117 118 118 116 112 106 101 100 98 96 95 94 84 94 143 153 155 153 149 135 128 129 127 127 119 115 157 326 126 126 146 159 152 106 110 119 123 120 120 117 121
65 80 92 77 99 107 128 135 142 138 144 142 143 139 137 142 136 136 137 140 144 148 147 148 145 145 145 139 141 142 144 139 139 136 135 133 135 138 140 139 135 128 116 112 114 117 117 116 111 107 103 103 103 101 103 101 78 82 147 169 164 160 154 142 130 139 138 138 117 119 91 200 137 139 146 155 158 155 127 127 101 128 120 122 126
63 72 66 89 135 128 115 98 116 105 108 117 127 139 140 131 139 155 151 152 151 148 154 151 149 145 150 141 142 144 146 143 142 139 135 135 136 134 136 137 136 132 122 116 115 118 117 118 115 115 114 112 109 105 105 96 73 63 135 175 173 167 158 138 146 148 153 132 145 127 132 182 144 143 144 155 162 153 128 142 119 90 105 108 113
69 54 58 24 91 122 113 120 105 112 116 116 116 119 137 140 169 164 157 150 146 148 156 158 156 148 147 151 150 144 145 144 142 138 139 136 135 137 141 141 142 134 126 122 119 114 115 123 120 122 123 124 114 108 105 87 68 71 121 167 175 171 143 140 151 160 156 159 159 146 202 186 155 152 153 156 156 155 151 156 150 147 146 143 124
74 63 74 53 35 113 122 121 108 100 109 113 113 123 153 154 170 165 160 140 150 154 156 163 160 150 139 147 131 90 118 128 128 131 144 137 144 147 148 149 146 138 130 127 95 71 82 121 130 128 127 130 121 108 92 86 83 85 104 160 170 137 137 148 161 158 161 182 175 186 204 204 161 162 160 158 153 155 151 143 138 133 126 117 123
116 103 67 60 71 94 124 125 113 112 114 113 120 139 159 155 140 177 169 152 163 159 151 152 151 139 153 133 108 122 114 103 139 158 131 147 153 157 156 153 146 137 133 112 86 54 57 111 134 131 134 142 119 103 70 62 91 127 132 150 125 145 150 164 164 170 165 182 181 214 216 201 167 166 165 161 161 164 147 149 158 143 108 118 125
143 130 118 83 56 66 109 127 123 118 109 114 121 136 128 134 147 147 164 153 166 142 206 142 114 125 111 121 119 118 121 124 134 156 147 147 172 167 170 159 153 152 143 133 100 81 78 109 124 133 130 94 74 73 62 62 331 125 109 113 142 151 163 171 172 173 174 183 184 219 226 173 174 169 164 163 164 166 160 145 127 133 142 141 141
160 154 147 113 81 30 105 151 134 133 121 127 123 118 136 148 148 144 149 103 105 99 318 111 123 120 129 126 118 107 108 128 175 174 175 131 189 183 184 173 170 167 172 82 60 64 69 63 85 106 84 60 74 94 116 152 86 30 109 132 164 167 177 181 181 175 176 196 191 219 216 180 177 177 168 170 169 173 173 167 160 155 153 157 172
147 142 139 149 122 163 164 152 148 135 130 144 144 146 149 153 161 140 143 146 163 187 219 138 133 126 125 124 115 111 110 155 7 57 118 142 113 45 140 87 81 94 78 99 101 77 71 83 63 87 107 179 212 128 135 127 132 126 151 159 162 177 188 184 188 184 186 206 200 213 212 194 187 187 188 180 183 180 184 176 171 166 170 173 181
149 160 167 146 155 161 169 150 143 144 139 143 154 162 161 162 154 157 152 154 159 202 181 145 131 128 120 119 108 103 110 138 32 53 156 148 155 131 142 133 120 176 9 21 34 64 97 67 79 130 195 206 206 161 146 138 149 154 178 195 173 182 188 184 187 198 200 198 212 211 210 204 197 200 203 194 197 177 188 188 181 188 185 180 182
174 173 161 150 144 154 159 154 151 152 135 148 163 159 166 170 159 163 164 167 187 177 175 146 140 129 124 128 127 128 137 159 160 190 206 191 187 153 164 138 157 213 279 67 354 346 356 69 143 167 221 221 233 205 139 143 152 156 173 194 188 185 188 184 189 202 206 204 212 213 211 201 197 204 205 199 204 184 197 190 185 190 196 196 194
147 147 156 156 144 150 148 165 151 153 143 156 162 148 164 169 173 169 167 176 181 176 176 164 139 134 144 152 140 144 159 166 180 187 215 211 202 188 176 176 178 230 103 96 3 340 345 357 348 289 30 7 351 359 353 138 157 154 158 184 195 184 190 195 197 202 217 220 211 219 213 202 199 199 203 202 214 191 195 192 193 197 207 210 200
160 154 165 157 143 150 148 158 152 154 149 148 153 164 169 166 180 167 160 184 174 187 172 150 149 150 158 158 150 162 164 181 189 193 177 207 202 176 192 209 195 230 121 344 293 310 331 349 345 344 356 353 348 341 345 334 337 339 132 186 189 194 189 186 189 192 206 214 217 228 221 208 203 199 205 206 205 200 205 210 205 205 221 223 224
176 153 171 155 143 150 160 164 161 157 152 152 156 163 177 175 176 170 168 186 180 180 156 163 162 161 166 168 176 174 186 192 195 173 174 205 206 187 189 217 211 204 171 232 230 170 350 7 359 1 350 342 332 319 330 312 314 308 307 266 225 210 188 178 186 190 194 202 214 223 229 214 207 203 210 211 208 211 214 216 214 209 213 221 229
165 174 177 151 154 160 169 174 160 168 157 166 168 169 172 182 178 172 191 186 174 172 157 141 136 162 165 171 188 194 201 209 187 169 189 197 201 190 203 205 232 229 201 210 187 139 129 139 48 290 299 311 295 298 300 295 289 287 277 267 233 185 186 183 178 182 186 195 203 214 239 226 208 210 213 214 215 214 215 219 219 212 215 215 223
183 187 177 149 156 174 173 177 171 170 167 170 176 172 174 183 180 165 191 139 149 156 134 117 166 165 165 182 198 208 214 212 192 186 189 194 198 195 199 196 228 234 200 182 211 176 183 189 185 187 217 240 275 280 270 266 280 275 266 243 204 185 178 175 183 179 185 188 195 208 219 248 216 211 215 216 221 221 220 223 225 222 222 220 225
191 181 165 159 169 178 177 181 174 176 168 176 178 180 163 171 171 179 134 94 114 120 139 169 195 187 177 192 207 213 219 205 208 208 199 191 192 190 204 216 227 240 200 176 191 216 295 318 316 337 289 270 276 281 267 239 255 271 260 238 185 191 161 166 185 181 188 189 191 197 211 218 233 221 216 218 222 226 228 228 230 228 230 228 230
175 176 166 172 178 163 183 181 179 172 170 168 170 166 162 153 112 94 122 101 117 130 160 158 200 167 163 190 216 224 218 211 208 221 193 176 188 196 206 237 224 221 192 163 218 222 254 288 311 318 290 276 274 281 232 244 262 290 274 245 195 189 164 175 185 190 182 192 186 193 203 206 212 217 215 220 222 225 230 232 234 235 236 237 233
175 175 179 174 178 167 182 178 189 175 181 172 162 157 145 138 121 126 114 126 130 130 116 135 139 123 141 175 205 215 210 201 223 220 208 184 190 210 214 216 207 201 182 198 219 260 224 255 250 279 289 288 267 256 218 233 254 240 247 224 216 172 171 200 183 185 186 188 180 194 196 200 204 209 213 217 227 225 229 235 236 238 241 244 245
182 181 181 175 175 171 188 179 187 176 180 172 143 140 131 126 133 140 117 122 126 132 157 154 140 136 154 174 187 191 174 192 218 218 215 205 206 215 231 204 210 182 184 211 209 242 235 252 247 229 274 276 252 250 146 230 279 322 196 210 232 182 185 190 198 197 181 173 195 192 199 204 205 207 212 211 217 231 232 232 236 240 242 244 247
181 176 180 178 180 180 193 176 182 180 176 143 127 123 124 127 134 121 137 148 154 159 170 151 150 154 162 184 164 194 149 180 213 212 208 224 226 230 259 257 221 183 169 189 221 219 193 225 270 229 180 257 253 244 237 357 313 319 335 71 68 152 200 201 212 196 167 190 194 196 199 210 213 215 216 212 215 219 233 236 235 237 241 245 247
187 184 185 182 185 182 190 178 178 171 149 141 139 133 134 134 137 143 151 160 178 190 193 174 167 164 179 197 185 183 164 169 191 200 193 210 224 231 277 270 221 146 131 148 189 195 208 177 212 216 184 229 241 229 263 254 330 338 356 16 34 58 190 207 201 194 190 199 200 204 204 202 213 221 219 219 221 220 224 236 240 241 241 242 244
181 182 187 189 181 181 183 187 179 155 143 136 140 136 137 138 132 145 143 151 171 192 192 192 178 169 186 191 193 179 171 153 169 177 173 216 188 187 239 251 200 160 121 132 153 176 170 195 177 197 72 253 216 139 156 128 37 13 355 333 355 33 349 200 198 190 206 212 205 212 188 203 206 218 225 224 225 222 225 227 233 236 240 241 241
176 177 186 183 183 174 172 173 173 151 142 141 142 143 144 150 150 146 140 169 183 193 198 198 166 181 194 189 189 178 174 157 156 156 158 163 157 184 228 227 220 175 152 151 175 184 181 187 202 154 149 64 39 49 42 69 61 61 326 316 308 297 262 154 177 202 209 215 220 202 209 196 204 217 223 228 225 230 232 234 235 239 242 244 245
178 179 183 189 185 181 172 185 171 151 152 155 160 160 149 140 157 170 190 186 187 195 207 200 185 180 196 200 186 186 172 162 157 153 156 177 158 162 173 223 211 192 203 227 205 179 168 171 148 97 161 151 86 10 43 70 50 345 346 348 318 288 281 230 218 215 211 217 206 217 218 210 217 219 225 217 224 228 230 231 238 240 242 246 246
195 185 190 191 185 178 185 180 163 165 167 173 169 175 160 172 167 193 173 168 183 192 201 204 195 185 189 205 204 195 184 176 165 162 155 152 145 160 176 199 199 200 196 178 176 191 148 127 132 103 39 173 208 337 315 44 27 96 25 334 338 324 356 328 318 289 254 237 213 208 215 222 231 232 231 221 230 230 232 230 233 237 241 239 239
184 191 199 192 185 182 184 176 168 171 174 179 183 185 195 188 150 161 155 140 220 208 198 164 180 184 190 197 204 205 202 196 192 173 164 160 155 157 180 179 185 188 174 159 152 180 181 187 175 169 191 53 71 20 311 63 142 124 132 56 352 1 332 356 329 323 342 277 229 217 215 226 240 237 225 223 234 235 237 231 232 232 233 231 236
184 189 196 201 194 191 181 173 172 167 177 190 197 205 180 118 72 75 99 94 185 210 220 201 194 193 203 198 214 206 201 207 206 207 184 162 155 166 166 171 172 185 171 174 175 186 188 186 159 134 65 38 23 269 267 244 131 142 329 59 231 114 322 7 330 295 289 327 60 284 253 245 255 259 216 231 234 233 240 235 235 231 228 227 228
191 192 192 197 195 195 187 176 170 174 177 191 197 180 152 133 129 67 91 126 332 136 151 203 202 207 203 204 214 210 198 209 198 193 195 168 159 159 169 171 171 174 170 178 193 205 207 191 155 137 184 178 218 234 258 237 260 159 138 123 352 12 219 258 335 286 349 7 1 359 252 241 284 290 273 264 250 242 242 240 236 234 229 222 221
195 195 193 193 191 191 183 178 175 176 182 188 182 159 174 166 167 189 204 207 233 229 236 241 218 220 240 192 212 222 220 213 206 201 207 187 170 172 174 169 172 173 176 175 187 203 222 192 190 181 188 202 151 170 270 257 217 147 114 153 176 172 209 259 75 309 325 216 301 322 323 13 278 260 269 279 274 265 243 251 246 247 239 230 223
203 185 185 192 192 185 183 182 184 186 184 178 168 164 158 169 189 200 199 201 224 238 192 128 163 169 185 200 202 208 227 220 217 212 198 207 200 191 186 182 174 174 174 164 177 206 216 217 199 191 196 160 128 166 207 196 93 254 207 167 121 64 153 101 252 52 343 314 352 348 332 336 326 306 281 249 259 269 264 254 256 252 252 245 235
188 181 185 184 191 187 178 186 191 192 189 171 172 175 178 176 178 193 195 202 212 229 157 150 149 216 229 230 220 213 227 229 221 213 200 201 202 188 191 183 177 173 182 193 201 201 191 215 208 196 157 171 186 200 209 205 169 188 209 210 208 125 62 73 131 153 184 287 312 322 264 307 327 311 301 305 308 293 289 269 262 263 262 257 248
180 189 194 189 184 181 179 182 191 194 188 179 177 182 182 182 186 184 200 207 202 212 164 160 168 198 206 222 229 234 229 233 229 211 210 203 204 200 198 199 194 194 202 201 199 194 202 198 199 191 191 204 195 186 143 204 202 182 142 165 172 206 135 84 138 115 159 175 288 314 308 320 327 311 343 304 291 287 286 287 280 271 264 267 271
188 190 192 180 176 172 181 184 195 194 184 183 181 185 186 179 183 192 203 210 198 184 162 175 178 173 209 214 222 231 232 230 225 217 209 215 209 197 191 200 207 206 214 208 197 191 194 198 201 200 195 199 206 194 202 202 202 185 189 155 154 143 137 131 168 168 260 216 266 306 315 318 322 296 319 321 323 309 302 288 289 287 285 290 300
177 179 183 187 181 181 185 191 198 193 189 187 183 188 188 186 193 196 205 211 202 185 194 213 191 192 217 219 210 223 225 225 224 226 215 209 216 213 207 201 198 206 212 211 204 199 195 196 196 195 195 196 198 204 212 210 182 187 185 173 177 172 174 185 196 194 192 200 229 280 284 242 261 308 297 323 312 309 301 287 290 294 304 311 311